Olympia, WA
on Monday, February 11, 2013

Monday
Previous Day Next Day
Daily Summary
 ActualAverageRecord
Temperature
Mean Temperature °F 41°F  
Max Temperature 46°F 49°F 67°F (1963)
Min Temperature 37°F 33°F 18°F (1948)
Degree Days
Heating Degree Days 23 24  
Month to date heating degree days 255 265  
Since 1 July heating degree days 3293 3316  
Cooling Degree Days 0 0  
Month to date cooling degree days 0 0  
Year to date cooling degree days 0 0  
Moisture
Dew Point 40°F   
Average Humidity 92    
Maximum Humidity 100    
Minimum Humidity 83    
Precipitation
Precipitation 0.00 in 0.20 in 0.93 in (1975)
Month to date precipitation 0.55 2.23  
Year to date precipitation 4.46 10.07  
Wind
Wind Speed 5 mph   
Max Wind Speed 13 mph   
Max Gust Speed 15 mph   
Visibility 8 miles   
Events     

Key: T is trace of precipitation, MM is missing value
Source: NWS Daily Summary
Time(PST)TemperatureDew PointHumidity Pressure Visibility Wind DirectionWind SpeedGust SpeedPrecipitationEvents Conditions
12:23 AM 41.0°F 37.9°F 89% 30.34 in 8.0 miles Calm Calm - N/A   Overcast
12:34 AM 41.0°F 37.9°F 89% 30.35 in 7.0 miles Calm Calm - N/A   Overcast
12:54 AM 41.0°F 37.9°F 89% 30.35 in 8.0 miles Calm Calm - N/A   Overcast
1:54 AM 39.9°F 37.9°F 93% 30.36 in 7.0 miles Calm Calm - N/A   Overcast
2:54 AM 39.9°F 37.9°F 93% 30.36 in 7.0 miles NW 3.5 mph - N/A   Overcast
3:54 AM 39.9°F 39.0°F 97% 30.35 in 7.0 miles Calm Calm - N/A   Overcast
4:06 AM 39.0°F 37.9°F 96% 30.34 in 7.0 miles Calm Calm - N/A   Overcast
4:54 AM 39.0°F 39.0°F 100% 30.35 in 6.0 miles Calm Calm - N/A   Overcast
5:03 AM 39.9°F 39.0°F 97% 30.34 in 5.0 miles Calm Calm - N/A   Overcast
5:13 AM 39.0°F 39.0°F 100% 30.35 in 5.0 miles Calm Calm - N/A   Overcast
5:54 AM 39.0°F 37.9°F 96% 30.35 in 5.0 miles Calm Calm - N/A   Overcast
6:54 AM 39.0°F 37.9°F 96% 30.35 in 6.0 miles Calm Calm - N/A   Overcast
7:54 AM 37.9°F 37.0°F 97% 30.35 in 7.0 miles South 5.8 mph - N/A   Mostly Cloudy
8:06 AM 39.0°F 37.9°F 96% 30.35 in 0.8 miles SSW 4.6 mph - N/A   Overcast
8:13 AM 39.9°F 37.9°F 93% 30.35 in 10.0 miles SSW 4.6 mph - N/A   Mostly Cloudy
8:54 AM 41.0°F 39.0°F 93% 30.36 in 10.0 miles SSW 4.6 mph - N/A   Mostly Cloudy
9:54 AM 42.1°F 39.0°F 89% 30.37 in 10.0 miles SSW 6.9 mph - N/A   Mostly Cloudy
10:06 AM 43.0°F 39.0°F 86% 30.36 in 7.0 miles SSW 6.9 mph - N/A   Overcast
10:54 AM 44.1°F 39.0°F 82% 30.36 in 9.0 miles South 8.1 mph - N/A   Overcast
11:54 AM 45.0°F 39.0°F 80% 30.36 in 10.0 miles SSW 9.2 mph - N/A   Overcast
12:54 PM 45.0°F 39.9°F 82% 30.35 in 10.0 miles SSW 8.1 mph - N/A   Overcast
1:40 PM 45.0°F 42.1°F 90% 30.34 in 4.0 miles Variable 6.9 mph - N/A   Overcast
1:45 PM 45.0°F 41.0°F 86% 30.34 in 5.0 miles South 10.4 mph - N/A   Overcast
1:54 PM 44.1°F 41.0°F 89% 30.34 in 5.0 miles SSW 11.5 mph - N/A   Overcast
2:54 PM 45.0°F 42.1°F 90% 30.34 in 6.0 miles SSW 6.9 mph - N/A   Overcast
3:54 PM 45.0°F 42.1°F 90% 30.34 in 10.0 miles SSW 9.2 mph - N/A   Overcast
4:54 PM 45.0°F 42.1°F 90% 30.34 in 10.0 miles South 6.9 mph - N/A   Overcast
5:54 PM 45.0°F 43.0°F 93% 30.34 in 10.0 miles SSW 4.6 mph - N/A   Overcast
6:26 PM 45.0°F 43.0°F 93% 30.34 in 10.0 miles SSW 3.5 mph - N/A   Overcast
6:28 PM 45.0°F 43.0°F 93% 30.34 in 10.0 miles SSW 3.5 mph - N/A   Overcast
6:54 PM 44.1°F 43.0°F 96% 30.35 in 6.0 miles SSW 4.6 mph - N/A   Overcast
7:54 PM 45.0°F 43.0°F 93% 30.35 in 10.0 miles SSW 5.8 mph - N/A   Overcast
8:54 PM 45.0°F 43.0°F 93% 30.34 in 10.0 miles SSW 5.8 mph - N/A   Overcast
9:54 PM 45.0°F 43.0°F 93% 30.35 in 10.0 miles SSW 6.9 mph - N/A   Overcast
10:31 PM 43.0°F 42.1°F 97% 30.35 in 10.0 miles SSW 5.8 mph - N/A   Overcast
10:54 PM 43.0°F 42.1°F 97% 30.36 in 10.0 miles South 5.8 mph - N/A   Overcast
11:38 PM 43.0°F 42.1°F 97% 30.36 in 9.0 miles Calm Calm - N/A   Overcast
11:54 PM 43.0°F 42.1°F 97% 30.37 in 9.0 miles Calm Calm - N/A   Overcast
Moon Phase
Feb. 11 Feb. 17 Feb. 25 Mar. 04 Mar. 11
Sunrise:07:21 AM (PST) Moon Rise:07:39 AM (PST)2/11
Sunset:05:30 PM (PST) Moon Set:07:45 PM (PST)2/11

Copyright © 2014 The Weather Underground, Inc.